Regional Weather Roundup
Issued by NWS Charleston, WV

Home | Current Version | Previous Version | Graphics & Text | Print | Product List | Glossary On
Versions: 1 2 3 4 5 6 7 8 9 10 11 12 13 14 15 16 17 18 19 20 21 22 23 24 25 26 27 28 29 30 31 32 33 34 35 36 37 38 39 40 41 42 43 44 45 46 47 48 49 50
000
ASUS41 KRLX 090910
RWRRLX
West Virginia Regional Weather Roundup
National Weather Service Charleston WV
400 AM EST FRI DEC 09 2016

Note: "fair" indicates few or no clouds below 12,000 feet with no
significant weather and/or obstructions to visibility.

WVZ003-091000-
Northern Panhandle of West Virginia

CITY           SKY/WX    TMP DP  RH WIND       PRES   REMARKS
WHEELING       LGT SNOW  20  15  81 W12       30.30F WCI   8
$$

WVZ009-091000-
Northwest West Virginia

CITY           SKY/WX    TMP DP  RH WIND       PRES   REMARKS
PARKERSBURG    FLURRIES  24  13  62 W12       30.42R
$$

WVZ006-091000-
Western West Virginia

CITY           SKY/WX    TMP DP  RH WIND       PRES   REMARKS
HUNTINGTON     CLOUDY    25  11  55 W7        30.44S
$$

WVZ015-091000-
West Central West Virginia

CITY           SKY/WX    TMP DP  RH WIND       PRES   REMARKS
CHARLESTON     FLURRIES  24  12  60 W10       30.41S
$$

WVZ022-031-091000-
North Central West Virginia

CITY           SKY/WX    TMP DP  RH WIND       PRES   REMARKS
CLARKSBURG     FLURRIES  23  16  74 W7        30.33R
MORGANTOWN     FLURRIES  23  14  68 W6        30.31S
$$

WVZ025-035-042-045-091000-
Southern West Virginia

CITY           SKY/WX    TMP DP  RH WIND       PRES   REMARKS
BECKLEY        LGT SNOW  18  12  77 NW13      30.28S WCI   5
LOGAN          FLURRIES  21  16  79 NW5       30.37R
BLUEFIELD      FLURRIES  20  13  74 W10       30.25R WCI   9
LEWISBURG      FLURRIES  19  10  69 NW14      30.27R WCI   5
$$

WVZ047-091000-
Northern Mountains of West Virginia

CITY           SKY/WX    TMP DP  RH WIND       PRES   REMARKS
ELKINS         CLOUDY    21  10  62 W8        30.27S
$$

WVZ052-091000-
Eastern Panhandle of West Virginia

CITY           SKY/WX    TMP DP  RH WIND       PRES   REMARKS
MARTINSBURG    PTCLDY    27  11  51 W16       30.23S
PETERSBURG     CLOUDY    28  13  53 W13G24    30.30S
$$




USA.gov is the U.S. government's official web portal to all federal, state and local government web resources and services.